Location: Amherst
(42.5000°N, 72.5000°W)
Time: 06:09:32
(UTC-04:00)

ISS - Pass Details

Date: 20 May 2018
Orbit: 402 x 407 km, 51.6° (Epoch: 26 May)

Event Time Altitude Azimuth Distance (km) Brightness Sun altitude
Rises 21:41:38 0° 221° (SW) 2,306 0.0 -14.2°
Reaches altitude 10° 21:43:44 10° 216° (SW) 1,450 -1.1 -14.5°
Maximum altitude 21:46:53 48° 140° (SE) 537 -3.7 -14.9°
Drops below altitude 10° 21:50:02 10° 65° (ENE) 1,456 -1.2 -15.3°
Sets 21:52:09 0° 60° (ENE) 2,318 -0.1 -15.6°
